Station LWSD1 - 8557380 - Lewes, DE Image indicating link to RSS feed of recent meteorological observations for station LWSD1


Conditions at LWSD1 as of
(4:30 am EDT)
0830 GMT on 06/06/2023:
     

Click on the graph icon in the table below to see a time series plot of the last five days of that observation.

5-day plot - Wind Direction Wind Direction (WDIR):WNW ( 290 deg true )
5-day plot - Wind Speed Wind Speed (WSPD): 11.1 kts
5-day plot - Wind Gust Wind Gust (GST): 13.0 kts
5-day plot - Atmospheric Pressure Atmospheric Pressure (PRES):29.81 in
5-day plot - Air Temperature Air Temperature (ATMP): 64.2 °F
5-day plot - Water Temperature Water Temperature (WTMP): 67.3 °F
5-day plot - Wind Speed at 10 Meters Wind Speed at 10 meters (WSPD10M): 11.7 kts
5-day plot - Wind Speed at 20 Meters Wind Speed at 20 meters (WSPD20M): 11.7 kts
5-day plot -  Wind Speed, Wind Gust and Atmospheric Pressure Combined plot of Wind Speed, Gust, and Air Pressure
NOS Water Level Observation Network Water Level
Previous observations
TIME
(EDT)
5-day plot - Wind Direction
WDIR
 
5-day plot - Wind Speed
WSPD
kts
5-day plot - Wind Gust
GST
kts
5-day plot - Wave Height
WVHT
ft
5-day plot - Dominant Wave Period
DPD
sec
5-day plot - Average Wave Period
APD
sec
5-day plot - Mean Wave Direction
MWD
 
5-day plot - Atmospheric Pressure
PRES
in
5-day plot - Pressure Tendency
PTDY
in
5-day plot - Air Temperature
ATMP
°F
5-day plot - Water Temperature
WTMP
°F
5-day plot - Dew Point
DEWP
°F
5-day plot - Salinity
SAL
psu
5-day plot - Visibility
VIS
nmi
5-day plot - Tide (above MLLW)
TIDE
ft
2023-06-06 04:24 amWNW 11.1 13.0----29.81- 64.0 67.3----
2023-06-06 04:18 am W 9.9 13.0----29.81- 64.0 67.3----
2023-06-06 04:12 am W 9.9 13.0----29.81- 63.7 67.3----
2023-06-06 04:06 am W 9.9 13.0----29.81- 64.2 67.3----
2023-06-06 04:00 am W 12.0 15.0----29.81-0.02 65.1 67.3----
2023-06-06 03:54 am W 11.1 14.0----29.81- 64.9 67.3----
2023-06-06 03:48 am W 11.1 15.0----29.81- 65.3 67.3----
2023-06-06 03:42 am W 9.9 13.0----29.81- 64.6 67.3----
2023-06-06 03:36 am W 12.0 13.0----29.82- 64.6 67.3----
2023-06-06 03:30 am-------29.82- 64.6 67.3----
2023-06-06 03:24 am-------29.82- 64.2 67.3----
2023-06-06 03:18 am W 9.9 12.0----29.82- 63.7 67.3----
2023-06-06 03:12 am W 8.0 9.9----29.82- 63.0 67.3----
2023-06-06 03:06 am W 8.9 11.1----29.82- 63.1 67.3----
2023-06-06 03:00 am W 6.0 8.0----29.82-0.03 62.2 67.3----
2023-06-06 02:54 am W 6.0 8.9----29.82- 62.2 67.3----
2023-06-06 02:48 am W 7.0 8.9----29.82- 62.4 67.3----
2023-06-06 02:42 amWSW 5.1 7.0----29.82- 61.2 67.3----
2023-06-06 02:36 amWSW 6.0 8.9----29.82- 61.5 67.3----
2023-06-06 02:30 amWSW 5.1 8.9----29.82- 61.2 67.3----
2023-06-06 02:24 amWSW 6.0 8.0----29.83- 61.5 67.3----
2023-06-06 02:18 amWSW 6.0 8.9----29.83- 62.2 67.3----
2023-06-06 02:12 amWSW 6.0 8.9----29.83- 62.4 67.3----
2023-06-06 02:06 am W 6.0 9.9----29.83- 62.8 67.3----
2023-06-06 02:00 amWSW 7.0 9.9----29.83-0.02 63.1 67.3----
2023-06-06 01:54 am W 5.1 7.0----29.83- 63.0 67.3----
2023-06-06 01:48 amWSW 5.1 8.9----29.83- 63.3 67.3----
2023-06-06 01:42 am W 7.0 8.9----29.83- 64.2 67.5----
2023-06-06 01:36 am W 7.0 8.0----29.83- 64.4 67.5----
2023-06-06 01:30 am W 8.0 9.9----29.83- 64.9 67.5----
2023-06-06 01:24 am W 8.0 9.9----29.84- 65.3 67.5----
2023-06-06 01:18 am W 8.0 9.9----29.84- 65.3 67.5----
2023-06-06 01:12 am W 8.9 11.1----29.84- 65.5 67.6----
2023-06-06 01:06 am W 9.9 12.0----29.84- 65.8 67.6----
2023-06-06 01:00 amWNW 9.9 12.0----29.84-0.01 66.0 67.6----
2023-06-06 12:54 am W 8.9 12.0----29.84- 65.8 67.6----
2023-06-06 12:48 am W 8.9 12.0----29.84- 65.5 67.8----
2023-06-06 12:42 am W 9.9 12.0----29.84- 65.7 67.8----
2023-06-06 12:36 am W 9.9 12.0----29.84- 66.2 67.8----
2023-06-06 12:30 am W 9.9 12.0----29.84- 66.2 67.8----
2023-06-06 12:24 am W 11.1 12.0----29.84- 66.4 67.8----
2023-06-06 12:18 am W 8.9 9.9----29.84- 66.2 67.6----
2023-06-06 12:12 am W 9.9 12.0----29.84- 66.0 67.6----
2023-06-06 12:06 am W 9.9 12.0----29.85- 66.2 67.6----
2023-06-06 12:00 amWNW 11.1 13.0----29.85+0.01 66.6 67.6----
2023-06-05 11:54 pm W 9.9 11.1----29.85- 66.2 67.6----
2023-06-05 11:48 pmWNW 9.9 12.0----29.85- 66.4 67.6----
2023-06-05 11:42 pmWNW 11.1 13.0----29.85- 66.4 67.6----
2023-06-05 11:36 pmWNW 11.1 13.0----29.85- 66.6 67.6----
2023-06-05 11:30 pmWNW 11.1 13.0----29.85- 66.6 67.6----
2023-06-05 11:24 pmWNW 12.0 13.0----29.85- 66.9 67.6----
2023-06-05 11:18 pm W 9.9 12.0----29.85- 67.1 67.5----
2023-06-05 11:12 pm W 11.1 13.0----29.85- 67.1 67.5----
2023-06-05 11:06 pm W 11.1 12.0----29.85- 67.5 67.6----
2023-06-05 11:00 pm W 11.1 13.0----29.85- 67.8 67.6----
2023-06-05 10:54 pm W 12.0 14.0----29.85- 68.2 67.6----
2023-06-05 10:48 pm W 9.9 12.0----29.85- 68.0 67.8----
2023-06-05 10:42 pm W 9.9 12.0----29.84- 68.2 67.8----
2023-06-05 10:36 pm W 9.9 12.0----29.85- 68.4 67.8----
2023-06-05 10:30 pm W 8.9 11.1----29.85- 68.2 67.8----
2023-06-05 10:24 pm W 9.9 12.0----29.85- 68.4 67.8----
2023-06-05 10:18 pm W 8.9 11.1----29.85- 68.4 68.0----
2023-06-05 10:12 pm W 9.9 12.0----29.85- 68.5 68.0----
2023-06-05 10:06 pm W 8.9 11.1----29.85- 68.4 68.2----
2023-06-05 10:00 pm W 8.0 11.1----29.85+0.00 68.2 68.2----
2023-06-05 09:54 pm W 8.9 11.1----29.85- 68.4 68.2----
2023-06-05 09:48 pm W 8.0 9.9----29.85- 68.5 68.2----
2023-06-05 09:42 pm W 7.0 8.9----29.85- 68.7 68.2----
2023-06-05 09:36 pm W 6.0 8.0----29.85- 68.2 68.2----
2023-06-05 09:30 pm W 7.0 8.0----29.85- 68.4 68.2----
2023-06-05 09:24 pm W 5.1 6.0----29.84- 67.6 68.2----
2023-06-05 09:18 pmWSW 5.1 7.0----29.84- 67.8 68.2----
2023-06-05 09:12 pm SW 4.1 5.1----29.84- 67.6 68.2----
2023-06-05 09:06 pm SW 4.1 5.1----29.84- 67.6 68.2----
2023-06-05 09:00 pm SW 4.1 5.1----29.84-0.01 67.8-----
2023-06-05 08:54 pm SW 2.9 5.1----29.84- 67.8-----
2023-06-05 08:48 pm SW 2.9 5.1----29.84- 68.0 68.2----
2023-06-05 08:42 pm SW 2.9 5.1----29.84- 68.2 68.2----
2023-06-05 08:36 pm SW 4.1 5.1----29.84- 68.4 68.2----
2023-06-05 08:30 pmSSW 2.9 5.1----29.84- 68.5 68.2----
2023-06-05 08:24 pmSSW 4.1 5.1----29.84- 68.4 68.4----
2023-06-05 08:18 pmSSW 1.9 4.1----29.84- 68.7 68.4----
2023-06-05 08:12 pmSSW 1.9 4.1----29.84- 68.9 68.4----
2023-06-05 08:06 pmSSW 4.1 6.0----29.84- 69.3 68.4----
2023-06-05 08:00 pmSSW 2.9 5.1------ 69.4 68.5----
2023-06-05 07:54 pmSSW 2.9 4.1------ 69.6 68.2----
2023-06-05 07:48 pmSSW 1.9 2.9----29.84- 70.2 68.2----
2023-06-05 07:42 pmSSW 1.9 2.9----29.84- 70.5 68.4----
2023-06-05 07:36 pmSSW 1.9 4.1----29.84- 70.5 68.2----
2023-06-05 07:30 pmSSW 1.9 5.1----29.84- 70.5 68.0----
2023-06-05 07:24 pm S 4.1 6.0----29.84- 70.3 67.6----
2023-06-05 07:18 pm S 4.1 6.0----29.84- 70.5 67.6----
2023-06-05 07:12 pm S 4.1 5.1----29.84- 70.5 67.6----
2023-06-05 07:06 pmSSW 2.9 6.0----29.84- 70.9 67.6----
2023-06-05 07:00 pm S 4.1 5.1----29.84-0.02 70.9 67.8----
2023-06-05 06:54 pm S 4.1 6.0----29.84- 70.9 67.8----
2023-06-05 06:48 pmSSW 4.1 6.0----29.84- 71.1 67.8----
2023-06-05 06:42 pmSSW 4.1 6.0----29.84- 71.1 67.8----
2023-06-05 06:36 pmSSW 5.1 7.0----29.84- 71.1 68.0----
2023-06-05 06:30 pmSSW 5.1 6.0----29.85- 71.1 68.0----
2023-06-05 06:24 pm SW 4.1 7.0----29.85- 71.4 68.0----
2023-06-05 06:18 pmSSW 6.0 8.0----29.85- 70.9 67.8----
2023-06-05 06:12 pmSSW 5.1 7.0----29.85- 71.1 68.0----
2023-06-05 06:06 pm SW 6.0 8.0----29.85- 71.1 68.0----
2023-06-05 06:00 pm SW 6.0 8.0----29.85-0.03 71.2 68.0----
2023-06-05 05:54 pm SW 4.1 7.0----29.85- 72.0 68.0----
2023-06-05 05:48 pm SW 2.9 6.0----29.85- 72.5 68.0----
2023-06-05 05:42 pm W 4.1 6.0----29.85- 72.5 67.8----
2023-06-05 05:36 pmWNW 1.9 2.9----29.85- 72.5 67.8----
2023-06-05 05:30 pm NW 2.9 4.1----29.85- 72.1 67.8----
2023-06-05 05:24 pmWNW 2.9 4.1----29.85- 73.0 67.8----
2023-06-05 05:18 pm W 1.9 5.1----29.85- 72.9 67.8----
2023-06-05 05:12 pm NW 4.1 5.1----29.85- 72.3 67.8----
2023-06-05 05:06 pmWNW 2.9 4.1----29.85- 73.0 67.8----
2023-06-05 05:00 pm S 2.9 5.1----29.86-0.03 71.8 68.0----
2023-06-05 04:54 pm- 0.0 0.0----29.86- 73.4 68.0----
2023-06-05 04:48 pm- 0.0 0.0----29.86- 72.7 67.8----
2023-06-05 04:42 pm- 0.0 0.0----29.86- 71.4 67.8----
2023-06-05 04:36 pm- 0.0 1.0----29.86- 72.0 67.6----
2023-06-05 04:30 pm- 0.0 1.9----29.86- 70.3 67.8----
2023-06-05 04:24 pm N 1.9 2.9----29.86- 69.6 67.6----
2023-06-05 04:18 pmNNE 2.9 5.1----29.86- 69.1 67.8----
2023-06-05 04:12 pm N 4.1 6.0----29.86- 68.5 67.8----
2023-06-05 04:06 pm N 5.1 6.0----29.86- 68.2 67.8----
2023-06-05 04:00 pmNNE 4.1 6.0----29.86-0.05 68.4 67.8----
2023-06-05 03:54 pm N 5.1 6.0----29.86- 68.2 67.8----
2023-06-05 03:48 pmNNE 4.1 5.1----29.86- 68.4 67.8----
2023-06-05 03:42 pmNNE 4.1 5.1----29.87- 68.2 67.6----
2023-06-05 03:36 pmNNE 5.1 6.0----29.87- 67.6 67.1----
2023-06-05 03:30 pmNNE 6.0 7.0----29.87- 67.5 67.1----
2023-06-05 03:24 pmNNE 5.1 6.0----29.87- 67.6 66.9----
2023-06-05 03:18 pmNNE 5.1 5.1----29.87- 67.5 66.9----
2023-06-05 03:12 pmNNE 5.1 5.1----29.87- 67.3 67.1----
2023-06-05 03:06 pmNNE 5.1 5.1----29.87- 67.5 66.7----
2023-06-05 03:00 pmNNE 4.1 4.1----29.87-0.06 67.3 66.7----
2023-06-05 02:54 pmNNE 4.1 4.1----29.88- 67.3 66.6----
2023-06-05 02:48 pm N 4.1 5.1----29.88- 67.1 66.6----
2023-06-05 02:42 pm N 4.1 5.1----29.88- 66.7 66.4----
2023-06-05 02:36 pm N 5.1 6.0----29.88- 66.6 66.4----
2023-06-05 02:30 pm N 4.1 6.0----29.88- 66.6 66.4----
2023-06-05 02:24 pm N 5.1 6.0----29.88- 66.4 66.4----
2023-06-05 02:18 pmNNW 4.1 7.0------ 67.1 66.2----
2023-06-05 02:12 pm N 6.0 8.0------ 66.0 66.2----
2023-06-05 02:06 pm N 5.1 7.0------ 65.7 66.2----
2023-06-05 02:00 pm N 6.0 7.0----29.89-0.05 65.5 66.2----
2023-06-05 01:54 pm N 7.0 8.9----29.89- 65.5 66.2----
2023-06-05 01:48 pm N 6.0 8.0----29.90- 65.5 66.2----
2023-06-05 01:42 pm N 6.0 8.9----29.90- 65.7 66.2----
2023-06-05 01:36 pm N 7.0 8.9----29.90- 65.5 66.2----
2023-06-05 01:30 pm N 6.0 7.0----29.90- 65.1 66.2----
2023-06-05 01:24 pm N 6.0 7.0----29.91- 65.3 66.2----
2023-06-05 01:18 pm N 5.1 6.0----29.91- 64.9 66.2----
2023-06-05 01:12 pm N 5.1 7.0----29.91- 64.9 66.2----
2023-06-05 01:06 pm N 6.0 7.0----29.91- 64.8 66.2----
2023-06-05 01:00 pm N 6.0 7.0----29.91-0.05 64.8 66.2----
2023-06-05 12:54 pmNNE 6.0 8.0----29.91- 64.6 66.0----
2023-06-05 12:48 pmNNE 7.0 8.0----29.92- 64.4 66.0----
2023-06-05 12:42 pm N 6.0 8.0----29.92- 64.6 66.0----
2023-06-05 12:36 pm N 6.0 8.0----29.92- 64.4 66.0----
2023-06-05 12:30 pmNNE 7.0 8.9----29.92- 64.2 66.0----
2023-06-05 12:24 pm N 8.0 8.9----29.93- 64.4 66.0----
2023-06-05 12:18 pm N 7.0 8.9----29.93- 64.2 66.0----
2023-06-05 12:12 pm N 7.0 8.9----29.93- 64.2 66.0----
2023-06-05 12:06 pm N 8.0 8.9----29.93- 64.2 66.0----
2023-06-05 12:00 pm N 8.0 8.9----29.93-0.04 64.2 65.8----
2023-06-05 11:54 am N 8.0 8.9----29.93- 64.0 65.8----
2023-06-05 11:48 amNNW 4.1 8.0----29.93- 65.1 65.8----
2023-06-05 11:42 am N 6.0 7.0----29.93- 63.9 65.8----
2023-06-05 11:36 amNNE 6.0 7.0----29.93- 63.7 66.0----
2023-06-05 11:30 am N 5.1 7.0----29.93- 63.7 66.0----
2023-06-05 11:24 am N 5.1 7.0----29.94- 63.5 66.0----
2023-06-05 11:18 am N 6.0 7.0----29.94- 63.5 66.0----
2023-06-05 11:12 am N 4.1 5.1----29.94- 63.3 66.0----
2023-06-05 11:06 am N 5.1 6.0----29.94- 63.1 65.8----
2023-06-05 11:00 amNNW 5.1 7.0----29.94-0.03 63.0 65.8----
2023-06-05 10:54 amSSW 1.9 7.0----29.94- 64.0 65.8----
2023-06-05 10:48 am N 6.0 7.0----29.95- 62.8 65.8----
2023-06-05 10:42 am N 6.0 7.0----29.95- 62.8 65.8----
2023-06-05 10:36 am N 6.0 7.0----29.95- 62.6 65.7----
2023-06-05 10:30 am N 5.1 6.0----29.95- 62.8 65.7----
2023-06-05 10:24 amNNW 4.1 6.0----29.95- 62.6 65.7----
2023-06-05 10:18 amNNW 6.0 7.0----29.95- 62.4 65.7----
2023-06-05 10:12 am N 5.1 7.0----29.96- 62.2 65.7----
2023-06-05 10:06 am N 5.1 7.0----29.96- 62.2 65.7----
2023-06-05 10:00 am N 5.1 7.0----29.96-0.01 62.4 65.7----
2023-06-05 09:54 amNNW 5.1 7.0----29.96- 62.2 65.8----
2023-06-05 09:48 amNNW 5.1 6.0----29.96- 62.4 65.7----
2023-06-05 09:42 am NW 6.0 7.0----29.96- 62.2 65.7----
2023-06-05 09:36 am NW 6.0 8.0----29.96- 62.1 65.7----
2023-06-05 09:30 am NW 7.0 8.0----29.96- 62.1 65.7----
2023-06-05 09:24 am NW 7.0 8.0----29.96- 62.1 65.7----
2023-06-05 09:18 am NW 6.0 8.9----29.96- 61.9 65.7----
2023-06-05 09:12 am NW 8.0 8.9----29.97- 61.7 65.7----
2023-06-05 09:06 amWNW 8.0 8.9----29.97- 61.9 65.8----
2023-06-05 09:00 amWNW 8.0 9.9----29.97+0.00 61.7 65.8----
2023-06-05 08:54 amWNW 7.0 8.9----29.97- 61.9 65.8----
2023-06-05 08:48 am W 5.1 7.0----29.97- 61.7 65.7----
2023-06-05 08:42 amWNW 5.1 8.0----29.97- 61.7 65.7----
2023-06-05 08:36 amWNW 5.1 6.0----29.97- 61.9 65.7----
2023-06-05 08:30 amWNW 5.1 6.0----29.97- 61.5 65.7----
2023-06-05 08:24 amWNW 5.1 5.1----29.97- 61.7 65.7----
2023-06-05 08:18 am-------29.97- 61.7 65.7----
2023-06-05 08:12 am-------29.97- 61.9 65.7----
2023-06-05 08:06 am-------29.97- 61.7 65.7----
2023-06-05 08:00 amWSW 4.1 5.1----29.97+0.01 61.5 65.7----
2023-06-05 07:54 amWSW 2.9 5.1----29.97- 61.5 65.7----
2023-06-05 07:48 am W 4.1 5.1----29.97- 61.3 65.7----
2023-06-05 07:42 am W 5.1 5.1----29.97- 61.0 65.7----
2023-06-05 07:36 am W 4.1 5.1----29.97- 61.0 65.7----
2023-06-05 07:30 am W 2.9 5.1----29.97- 60.8 65.7----
2023-06-05 07:24 amWSW 2.9 5.1----29.97- 60.6 65.7----
2023-06-05 07:18 amWSW 2.9 4.1----29.97- 60.4 65.7----
2023-06-05 07:12 amWSW 4.1 5.1----29.97- 60.1 65.7----
2023-06-05 07:06 amWSW 2.9 4.1----29.97- 59.9 65.7----
2023-06-05 07:00 amWSW 2.9 5.1----29.97+0.01 59.2 65.7----
2023-06-05 06:54 amWSW 2.9 4.1----29.97- 58.6 65.7----
2023-06-05 06:48 amWSW 2.9 5.1----29.96- 58.1 65.7----
2023-06-05 06:42 amWSW 4.1 5.1----29.96- 57.6 65.7----
2023-06-05 06:36 amWSW 4.1 5.1----29.96- 57.2 65.7----
2023-06-05 06:30 amWSW 4.1 5.1----29.96- 57.2 65.7----
2023-06-05 06:24 am SW 4.1 4.1----29.96- 57.2 65.7----
2023-06-05 06:18 am SW 2.9 4.1----29.97- 57.0 65.7----
2023-06-05 06:12 am SW 1.9 2.9----29.97- 56.8 65.7----
2023-06-05 06:06 am SW 2.9 4.1----29.97- 56.7 65.7----
2023-06-05 06:00 am SW 4.1 4.1----29.96+0.00 56.5 65.7----
2023-06-05 05:54 am SW 2.9 4.1----29.96- 55.9 65.7----
2023-06-05 05:48 amWSW 2.9 4.1----29.96-- 65.7----
2023-06-05 05:42 am SW 2.9 5.1----29.96-- 65.7----
2023-06-05 05:36 amWSW 4.1 5.1----29.96-- 65.7----
2023-06-05 05:30 am SW 4.1 4.1----29.96- 56.3 65.7----
2023-06-05 05:24 am SW 2.9 5.1----29.95- 55.6 65.7----
2023-06-05 05:18 am SW 4.1 5.1----29.96- 55.6 65.7----
2023-06-05 05:12 am SW 4.1 4.1----29.96- 55.4 65.7----
2023-06-05 05:06 am SW 4.1 4.1----29.96- 55.4 65.7----
2023-06-05 05:00 am SW 2.9 4.1----29.95-0.01 55.2 65.7----
2023-06-05 04:54 am SW 4.1 5.1----29.95- 55.4 65.8----